Gastonia, NC

6:10 AM EST on November 19, 2017 (GMT -0500)
Gastonia Municipal

Weather History for KAKH - February, 2013

Change the Weather History Date:

Sunday, February 10, 2013

  Actual Average (KCLT) Record (KCLT)
Temperature  
Mean Temperature 46 °F -  
Max Temperature 57 °F 51 °F 76 °F (1938)
Min Temperature 34 °F 29 °F 8 °F (1934)
Degree Days  
Heating Degree Days 20    
Moisture  
Dew Point 30 °F    
Average Humidity 57    
Maximum Humidity 96    
Minimum Humidity 25    
Precipitation  
Precipitation 0.15 in - - ()
Sea Level Pressure  
Sea Level Pressure 30.32 in    
Wind  
Wind Speed 3 mph (ESE)    
Max Wind Speed 8 mph    
Max Gust Speed -    
Visibility 9 miles    
Events Rain    
Averages and records for this station are not official NWS values.
T = Trace of Precipitation, MM = Missing Value Source: NWS Daily Summary

Daily Weather History Graph

Daily Weather History Graph

Search for Another Location

Airport or City:

Trip Planner

Search our weather history database for the weather conditions in past years. The results will help you decide how hot, cold, wet, or windy it might be!

Date:

Astronomy

Feb. 10, 2013 Rise Set
Actual Time 7:15 AM EST 6:02 PM EST
Civil Twilight 6:49 AM EST 6:28 PM EST
Nautical Twilight 6:19 AM EST 6:58 PM EST
Astronomical Twilight 5:50 AM EST 7:28 PM EST
Moon 7:07 AM EST (2/10) 6:47 PM EST (2/10)
Length of Visible Light 11h 39m
Length of Day
10h 46m
New Moon, 0% of the Moon is Illuminated
Feb 10
New Moon
Feb 17
First Quarter
Feb 25
Full
Mar 4
Last Quarter
Mar 11
New

Hourly Weather History & Observations

Time (EST) Temp. Windchill Dew Point Humidity Pressure Visibility Wind Dir Wind Speed Gust Speed Precip Events Conditions
12:54 AM 36.0 °F - 24.1 °F 62% 30.35 in 10.0 mi Calm Calm - N/A   Clear
1:54 AM 37.0 °F - 23.0 °F 57% 30.35 in 10.0 mi Calm Calm - N/A   Clear
2:54 AM 36.0 °F 33.3 °F 23.0 °F 59% 30.35 in 10.0 mi NE 3.5 mph - N/A   Clear
3:54 AM 37.0 °F 33.3 °F 23.0 °F 57% 30.35 in 10.0 mi ENE 4.6 mph - N/A   Clear
4:54 AM 37.9 °F 34.4 °F 21.9 °F 53% 30.36 in 10.0 mi Variable 4.6 mph - N/A   Clear
5:54 AM 34.0 °F - 26.1 °F 73% 30.37 in 10.0 mi Calm Calm - N/A   Clear
6:54 AM 36.0 °F 31.1 °F 26.1 °F 67% 30.41 in 10.0 mi NE 5.8 mph - N/A   Clear
7:54 AM 36.0 °F 31.1 °F 27.0 °F 70% 30.43 in 10.0 mi NE 5.8 mph - N/A   Clear
8:54 AM 39.9 °F 36.7 °F 27.0 °F 60% 30.43 in 10.0 mi ENE 4.6 mph - N/A   Clear
9:54 AM 46.0 °F 44.8 °F 25.0 °F 44% 30.43 in 10.0 mi SE 3.5 mph - N/A   Clear
10:54 AM 50.0 °F - 21.0 °F 32% 30.43 in 10.0 mi ESE 6.9 mph - N/A   Clear
11:54 AM 52.0 °F - 21.9 °F 31% 30.40 in 10.0 mi SE 8.1 mph - N/A   Clear
12:54 PM 54.0 °F - 19.9 °F 26% 30.38 in 10.0 mi South 6.9 mph - N/A   Clear
1:54 PM 55.0 °F - 21.0 °F 27% 30.32 in 10.0 mi Variable 3.5 mph - N/A   Clear
2:54 PM 57.0 °F - 21.0 °F 25% 30.29 in 10.0 mi South 6.9 mph - N/A   Partly Cloudy
3:54 PM 57.0 °F - 27.0 °F 32% 30.28 in 10.0 mi SSE 8.1 mph - N/A   Partly Cloudy
4:54 PM 55.9 °F - 30.0 °F 37% 30.25 in 10.0 mi SE 3.5 mph - N/A   Scattered Clouds
5:54 PM 55.0 °F - 32.0 °F 42% 30.25 in 10.0 mi Calm Calm - N/A   Overcast
6:54 PM 54.0 °F - 33.1 °F 45% 30.24 in 10.0 mi East 3.5 mph - N/A   Overcast
7:54 PM 53.1 °F - 37.9 °F 57% 30.24 in 9.0 mi ENE 3.5 mph - 0.00 in Rain Light Rain
8:54 PM 48.9 °F - 46.0 °F 90% 30.28 in 5.0 mi NNW 3.5 mph - 0.08 in Rain Rain
9:54 PM 48.0 °F - 46.9 °F 96% 30.26 in 6.0 mi Calm Calm - 0.06 in Rain Light Rain
10:54 PM 48.0 °F - 46.9 °F 96% 30.22 in 8.0 mi Calm Calm - 0.01 in Rain Light Rain
11:21 PM 48.2 °F - 46.4 °F 93% 30.19 in 6.0 mi South 3.5 mph - 0.00 in   Mostly Cloudy
11:54 PM 48.0 °F - 46.9 °F 96% 30.19 in 7.0 mi South 4.6 mph - 0.00 in   Mostly Cloudy